Wetbulb
60.13 59.86 59.43 59.07 59.62 59.90 59.22 58.51 58.37 59.50 59.48 59.31 59.55 59.99 61.34 61.50 62.43 61.19 55.94 60.33 62.75 63.77 63.86 62.88 62.57 60.46 61.04 58.74 59.47 56.38 52.77 50.18 50.73 49.86 51.54 52.33 52.23 54.03 53.95 54.47 57.00 59.55 58.96 60.43 63.37
60.09 59.87 59.73 59.15 59.31 59.91 59.72 59.38 58.85 59.09 59.10 59.41 59.66 59.72 61.05 62.02 58.90 55.77 62.32 63.94 64.35 64.17 61.86 60.71 59.32 58.96 56.89 56.30 57.41 55.62 51.90 52.17 54.98 54.73 53.37 53.54 53.85 54.87 54.09 54.28 54.38 55.86 60.18 61.46 62.44
59.59 59.62 59.51 59.43 58.98 59.75 59.90 59.54 59.09 59.05 59.26 60.13 59.76 59.97 60.79 61.05 53.52 53.53 62.45 64.17 64.45 64.04 61.58 62.07 60.80 59.12 54.94 55.64 54.91 53.82 51.49 54.97 53.83 54.06 53.94 54.10 52.67 54.83 54.55 53.49 55.86 54.80 55.68 60.05 61.49
59.23 59.12 59.17 59.09 58.94 59.15 59.70 59.38 59.45 59.43 59.41 59.91 59.88 59.51 60.04 58.29 40.47 55.97 60.33 63.80 64.57 62.72 60.16 59.59 58.44 55.96 52.82 51.88 54.06 50.16 53.35 53.74 54.40 54.15 53.98 53.28 55.44 53.85 54.72 57.05 58.67 57.83 56.80 55.94 59.61
58.21 58.48 58.55 58.56 58.66 58.79 59.39 59.34 59.17 59.26 59.37 59.77 59.56 59.10 57.82 51.30 50.23 58.72 61.47 61.63 62.31 60.24 58.43 58.16 55.57 54.41 50.34 52.47 52.01 50.30 51.83 53.25 54.64 53.61 53.72 53.66 52.89 53.38 53.26 56.76 58.95 57.04 53.17 55.11 57.34
57.44 57.71 58.00 57.96 58.22 58.44 58.79 59.26 58.95 58.74 59.15 59.25 59.18 58.86 54.05 45.55 57.18 60.12 61.61 61.56 60.15 58.91 58.09 58.64 55.85 56.59 52.72 52.20 51.62 52.23 52.24 52.37 52.61 52.97 53.35 51.19 52.57 51.69 54.55 57.52 56.58 55.82 56.10 57.82 57.30
57.13 57.04 57.73 57.78 57.97 58.17 58.24 58.85 58.72 58.64 58.72 58.70 59.10 56.51 51.49 49.04 57.79 60.15 60.25 59.32 60.25 59.32 55.87 59.17 59.08 55.62 54.67 50.93 52.83 51.74 49.47 51.76 51.75 52.01 51.47 53.22 49.57 50.17 55.38 56.54 55.18 54.81 55.27 56.97 57.42
56.30 56.39 56.93 57.71 57.68 57.99 58.05 58.49 58.39 58.31 57.75 58.12 57.95 54.39 46.05 55.48 59.43 56.95 58.79 57.64 59.66 59.85 58.65 59.68 59.49 55.87 53.75 53.50 50.81 48.44 48.64 43.94 49.81 52.00 52.52 51.84 44.80 51.66 55.88 55.29 54.67 55.62 55.89 55.08 55.93
55.10 55.97 56.52 57.25 57.21 57.49 57.68 57.96 58.05 58.31 57.36 57.16 54.11 51.51 44.25 56.14 52.08 55.34 57.65 55.57 56.90 56.52 57.37 58.69 57.34 53.01 51.34 48.03 45.37 45.87 41.16 42.93 45.14 51.92 51.20 50.24 47.37 52.52 55.51 54.17 53.35 54.75 55.80 56.04 55.56
54.49 55.25 56.08 56.84 57.33 57.08 57.23 57.64 57.03 56.45 55.07 54.50 53.00 46.87 48.89 46.63 51.85 54.74 57.26 57.09 54.27 54.11 51.94 52.63 51.72 48.17 48.28 45.26 36.92 39.23 41.05 42.95 42.51 47.40 50.12 48.47 48.17 52.01 54.28 54.22 53.90 54.40 54.70 55.18 54.49
54.61 54.88 55.86 56.23 56.99 57.31 56.31 51.73 47.48 45.52 48.16 43.36 44.91 44.94 46.64 52.03 54.34 52.74 55.75 54.36 53.50 51.06 45.41 48.71 43.93 40.28 43.63 45.58 45.98 44.42 42.75 41.58 44.99 48.32 46.91 46.09 47.07 50.08 52.87 53.17 52.91 53.60 54.27 54.91 56.30
54.16 54.50 55.26 55.99 56.50 57.42 52.79 45.26 45.51 46.21 39.67 46.97 47.37 47.74 50.34 52.50 46.19 49.08 55.38 48.15 48.07 43.70 46.73 44.43 40.12 44.97 46.18 46.60 45.09 44.35 41.99 41.60 44.19 46.19 46.12 45.68 45.41 49.04 50.83 51.32 52.64 53.04 53.52 54.20 55.31
53.04 53.87 54.36 55.49 56.14 54.81 48.45 46.10 50.30 50.88 39.50 41.08 46.21 46.20 48.41 50.77 45.12 46.00 51.01 48.17 45.16 42.90 43.93 40.69 42.35 46.01 43.97 42.99 41.26 41.75 39.78 40.87 40.88 44.84 46.36 44.41 42.91 45.33 49.36 51.49 52.44 53.20 54.12 54.53 54.49
52.46 53.08 53.77 54.64 51.26 52.49 46.73 48.95 49.29 49.67 34.23 35.18 39.88 44.74 47.47 48.71 43.91 50.83 51.59 47.73 44.53 41.68 43.73 43.13 46.12 43.90 43.03 41.59 43.11 37.76 44.17 43.05 41.84 39.58 34.74 44.28 34.37 42.59 46.06 46.71 49.25 51.18 52.85 54.26 55.38
51.36 52.46 53.33 53.82 50.48 48.64 49.84 48.70 46.07 46.40 20.89 36.60 39.29 49.81 47.88 43.80 45.41 46.39 52.22 47.60 41.06 41.83 42.81 39.60 41.83 42.13 40.86 41.63 44.38 40.95 45.21 43.51 41.96 38.89 37.73 39.27 35.43 40.34 45.50 44.08 46.85 49.99 51.83 53.70 55.30
49.32 51.73 52.46 51.19 51.76 52.03 51.96 48.00 43.68 28.58 20.46 32.72 39.84 39.97 40.75 42.58 43.37 46.57 46.85 49.29 47.28 42.09 43.22 42.29 45.75 45.07 43.40 45.24 45.26 45.92 43.75 42.88 41.60 38.36 31.19 37.34 36.20 39.00 42.85 45.11 47.30 49.57 51.29 53.02 54.50
48.93 50.94 50.27 51.18 45.81 51.73 48.25 42.85 28.13 22.86 30.61 30.98 34.19 38.21 38.29 37.90 40.17 41.29 41.12 40.17 37.83 33.44 33.51 38.40 39.58 44.15 46.02 41.68 44.73 43.35 39.13 31.45 30.49 30.10 31.06 39.23 37.04 40.03 45.63 47.85 48.57 49.64 51.66 52.77 53.34
50.33 50.21 48.83 49.18 52.19 50.37 45.63 32.02 23.47 28.10 25.80 35.64 36.10 36.81 34.03 37.69 37.72 39.67 37.91 35.75 41.21 39.27 35.36 32.33 30.42 39.26 44.23 42.44 39.88 40.30 38.73 32.59 27.06 28.80 33.00 36.96 34.19 40.28 46.60 49.15 50.72 51.37 51.32 51.07 51.39
50.23 47.57 45.36 47.06 50.78 48.90 39.34 27.32 28.48 29.01 30.28 32.87 34.81 31.96 31.71 36.35 36.44 37.31 37.52 36.60 39.18 40.36 35.22 32.54 32.30 41.98 42.58 44.14 43.68 39.42 35.93 40.81 34.19 31.57 30.23 35.67 39.84 44.28 46.19 46.96 48.86 49.07 48.99 48.90 48.96
45.23 43.34 42.21 48.19 49.94 46.01 33.32 30.61 32.32 33.83 35.66 36.33 29.78 33.38 29.58 33.08 33.15 34.91 35.43 39.22 38.27 42.11 43.77 38.73 32.43 40.33 41.29 43.72 44.03 41.67 43.74 34.69 35.44 27.98 26.27 33.13 35.42 37.24 42.66 45.24 47.93 47.00 46.21 46.50 46.20
43.20 34.84 42.54 47.71 47.72 39.33 28.24 31.77 30.68 34.51 36.61 33.15 31.28 31.46 33.07 32.12 33.64 34.44 35.05 37.88 41.18 40.75 42.89 40.78 36.94 35.96 40.36 38.11 37.52 37.40 35.77 37.85 37.47 34.80 28.44 27.27 33.54 44.18 44.56 46.62 45.98 47.17 45.44 45.19 44.67
38.25 29.25 43.90 46.73 33.46 31.95 31.74 32.53 32.40 32.27 35.47 35.00 34.44 32.72 33.45 34.00 33.00 33.75 33.59 36.62 41.91 42.46 38.01 41.37 37.03 32.07 34.52 41.41 43.95 42.23 38.96 38.57 32.68 29.82 33.66 32.45 34.34 43.13 44.64 45.97 45.77 45.56 44.45 44.16 45.57
33.57 35.01 43.35 43.88 28.66 30.88 33.06 32.24 33.04 33.58 34.37 35.56 34.50 35.56 35.92 33.75 30.46 34.00 35.23 39.81 41.48 41.11 39.09 40.12 34.28 28.92 31.95 35.06 38.45 37.99 40.28 39.99 39.12 36.17 32.57 30.81 34.81 44.20 44.28 45.67 45.63 46.19 47.30 46.73 47.37
34.33 29.14 34.42 36.93 33.42 33.53 31.39 30.38 29.87 37.46 35.38 36.40 35.33 36.58 34.62 33.53 34.69 32.78 34.30 38.83 41.62 42.07 42.84 42.17 35.88 32.17 30.13 33.24 37.30 34.90 37.96 39.07 37.71 32.83 33.75 34.15 37.28 42.59 44.09 44.87 46.50 47.62 48.77 49.16 48.17
32.55 31.88 32.77 27.99 30.34 33.40 33.93 32.01 30.42 30.45 35.24 35.81 34.52 34.99 33.89 30.39 32.44 32.34 35.61 37.51 40.46 42.11 42.13 39.75 32.71 34.20 35.93 36.42 37.00 36.78 36.60 38.42 36.59 36.85 33.22 37.32 37.87 42.15 44.54 45.45 46.96 48.24 48.80 48.59 48.48
32.17 31.66 33.76 33.80 34.07 33.34 33.54 30.98 30.54 32.93 32.78 32.96 34.50 35.66 35.96 32.03 33.84 32.07 35.41 36.59 36.42 40.30 39.67 39.72 32.33 34.31 31.43 36.56 36.57 33.84 35.88 38.23 38.49 38.64 38.31 39.18 37.86 45.37 47.04 47.53 46.91 47.07 47.30 47.15 47.82
35.47 37.79 35.64 34.09 32.82 32.41 31.53 31.49 31.73 34.71 33.99 37.35 37.75 35.61 33.76 36.25 38.50 40.15 40.75 41.29 40.40 39.45 38.15 36.95 32.86 31.41 28.64 32.34 32.37 29.81 33.67 35.20 37.46 39.35 39.42 35.32 40.53 44.84 44.31 44.81 45.58 46.56 47.33 46.92 47.69
MSLP
1017.74 1018.14 1018.52 1018.82 1019.16 1019.37 1019.59 1019.76 1020.13 1020.22 1020.36 1020.54 1020.66 1020.80 1020.65 1020.64 1020.65 1020.48 1019.86 1019.59 1019.52 1019.56 1019.29 1019.09 1018.90 1018.82 1018.69 1018.78 1018.76 1018.61 1017.45 1016.27 1016.07 1016.25 1016.19 1017.04 1016.95 1017.28 1017.29 1016.92 1017.00 1017.31 1017.71 1018.41 1018.80
1017.07 1017.54 1017.94 1018.44 1018.78 1019.03 1019.34 1019.54 1019.76 1020.06 1020.09 1020.34 1020.59 1020.71 1020.64 1020.65 1020.64 1020.01 1019.29 1019.55 1019.55 1019.61 1019.27 1018.92 1018.79 1018.86 1018.86 1018.99 1018.98 1018.28 1017.48 1016.30 1016.35 1016.26 1016.41 1016.85 1016.97 1016.73 1016.70 1016.50 1016.63 1016.76 1017.60 1018.55 1019.08
1016.50 1016.88 1017.36 1017.95 1018.38 1018.77 1019.01 1019.25 1019.52 1019.89 1019.94 1020.06 1020.41 1020.59 1020.67 1020.54 1020.37 1018.98 1019.02 1019.27 1019.39 1019.48 1019.50 1019.16 1019.10 1018.97 1018.96 1019.09 1018.98 1018.51 1017.27 1016.75 1016.74 1016.77 1017.07 1017.11 1017.19 1016.93 1016.18 1015.86 1015.89 1016.03 1016.68 1017.60 1018.33
1015.88 1016.32 1016.75 1017.32 1017.89 1018.42 1018.67 1018.98 1019.35 1019.60 1019.80 1019.94 1020.20 1020.45 1020.52 1020.54 1019.88 1018.93 1019.03 1018.92 1019.32 1019.34 1019.49 1019.23 1019.09 1018.87 1018.98 1018.94 1018.98 1018.73 1018.05 1017.70 1017.14 1017.37 1017.55 1017.47 1017.25 1016.88 1016.43 1015.23 1015.27 1015.46 1015.93 1016.66 1017.39
1015.27 1015.67 1016.20 1016.76 1017.33 1017.93 1018.34 1018.69 1019.02 1019.36 1019.63 1019.83 1020.05 1020.23 1020.55 1020.37 1019.18 1018.97 1018.93 1018.81 1019.12 1019.51 1019.25 1018.76 1018.62 1018.42 1018.70 1018.88 1019.20 1019.03 1018.49 1018.09 1017.82 1017.92 1017.84 1017.98 1017.36 1017.11 1016.32 1015.56 1015.35 1015.45 1015.63 1015.60 1016.14
1014.68 1015.17 1015.49 1016.24 1016.81 1017.51 1017.88 1018.26 1018.75 1019.17 1019.49 1019.69 1019.95 1020.15 1020.40 1019.56 1019.07 1019.07 1018.84 1018.98 1019.03 1019.36 1019.20 1018.67 1018.12 1018.30 1018.60 1018.91 1019.12 1019.07 1018.91 1018.47 1018.42 1018.06 1018.03 1017.93 1017.23 1017.35 1015.18 1015.48 1015.56 1015.62 1015.11 1015.00 1015.14
1014.11 1014.42 1015.13 1015.41 1016.24 1016.92 1017.45 1017.90 1018.40 1018.91 1019.23 1019.59 1019.85 1020.02 1019.86 1018.93 1019.06 1019.12 1019.05 1018.96 1019.30 1019.17 1019.23 1019.03 1018.71 1018.64 1018.70 1019.16 1019.49 1019.45 1019.27 1018.45 1018.27 1018.28 1017.98 1017.89 1016.47 1016.30 1015.04 1015.28 1015.24 1015.04 1014.92 1014.71 1014.58
1013.52 1013.85 1014.33 1015.07 1015.46 1016.26 1016.95 1017.49 1018.04 1018.71 1019.16 1019.50 1019.80 1020.14 1019.42 1019.06 1019.29 1019.18 1019.19 1019.27 1019.45 1019.53 1019.31 1019.26 1019.02 1018.94 1019.21 1019.70 1019.69 1019.79 1019.59 1018.56 1017.57 1017.99 1017.91 1017.89 1015.45 1015.25 1014.78 1014.73 1014.58 1014.34 1013.89 1013.93 1013.85
1012.85 1013.42 1013.77 1014.40 1014.78 1015.51 1016.43 1017.16 1017.88 1018.55 1019.17 1019.56 1019.98 1019.80 1019.41 1019.22 1019.29 1018.97 1019.02 1019.09 1019.55 1019.88 1019.70 1019.57 1019.34 1019.00 1019.78 1019.40 1019.43 1019.40 1018.48 1017.97 1017.68 1017.65 1017.64 1017.39 1015.34 1014.77 1014.62 1014.47 1014.03 1013.78 1013.41 1013.20 1013.09
1012.16 1012.70 1013.21 1013.65 1014.55 1014.96 1015.61 1016.93 1017.93 1018.69 1019.33 1019.86 1019.85 1020.08 1019.26 1018.76 1018.64 1018.80 1019.09 1019.17 1019.39 1019.80 1020.09 1019.88 1019.41 1019.09 1019.21 1018.86 1017.93 1018.24 1018.12 1017.79 1017.21 1017.27 1017.59 1016.95 1015.86 1015.27 1014.64 1014.17 1013.71 1013.17 1012.81 1012.64 1012.58
1011.26 1011.96 1012.51 1012.94 1013.76 1014.55 1015.57 1017.01 1018.51 1018.88 1018.69 1017.77 1017.88 1017.87 1017.67 1018.38 1018.48 1018.75 1018.85 1019.21 1019.22 1019.57 1019.55 1019.52 1019.30 1018.06 1018.24 1018.32 1018.17 1017.97 1017.97 1017.37 1017.30 1017.27 1017.28 1016.41 1015.29 1014.89 1014.18 1013.61 1013.10 1012.59 1011.92 1011.77 1011.51
1010.58 1011.13 1011.83 1012.38 1012.95 1013.81 1014.37 1014.68 1014.61 1014.67 1017.25 1017.71 1017.78 1017.84 1017.99 1018.02 1018.30 1018.80 1018.84 1019.05 1019.06 1018.66 1019.08 1019.20 1017.91 1018.15 1018.38 1018.39 1018.46 1018.17 1017.93 1017.63 1017.86 1018.06 1017.87 1016.79 1014.83 1014.35 1013.58 1012.36 1012.22 1011.62 1011.07 1010.80 1010.50
1009.89 1010.42 1011.05 1011.75 1012.59 1013.43 1013.18 1014.16 1014.72 1014.68 1016.08 1017.11 1017.60 1017.47 1017.71 1018.00 1017.58 1018.00 1018.37 1018.23 1018.13 1018.21 1018.21 1017.86 1017.36 1018.13 1018.24 1018.10 1018.29 1017.89 1017.93 1018.07 1017.93 1018.06 1018.12 1017.10 1013.42 1013.00 1012.23 1011.12 1010.73 1010.50 1010.07 1009.70 1009.58
1009.28 1009.86 1010.39 1011.38 1013.15 1012.55 1013.15 1014.39 1014.84 1014.59 1015.71 1016.72 1017.10 1016.74 1017.19 1017.51 1017.24 1017.09 1017.66 1017.61 1017.99 1017.88 1018.14 1017.86 1017.42 1017.64 1017.66 1017.61 1018.07 1017.63 1018.07 1018.45 1018.51 1018.83 1017.87 1017.52 1012.61 1011.53 1010.99 1009.66 1008.95 1009.15 1009.10 1008.73 1008.46
1008.99 1009.34 1009.75 1010.69 1010.74 1011.66 1012.31 1013.95 1015.10 1015.61 1015.14 1014.79 1015.67 1015.49 1015.95 1016.62 1016.50 1017.04 1017.48 1017.41 1017.05 1017.23 1017.62 1016.89 1017.09 1017.39 1016.96 1017.06 1017.82 1017.49 1018.13 1018.36 1018.56 1018.64 1018.56 1017.35 1015.96 1009.20 1009.77 1008.69 1008.33 1008.09 1007.96 1007.49 1007.46
1008.75 1008.77 1009.43 1010.32 1010.74 1011.13 1012.40 1014.55 1015.79 1016.90 1014.48 1014.54 1014.52 1014.93 1015.46 1015.94 1016.45 1016.82 1017.26 1017.41 1017.31 1017.56 1017.31 1016.85 1017.30 1016.81 1016.24 1017.09 1017.41 1017.93 1018.40 1018.49 1018.84 1019.08 1017.61 1016.63 1015.89 1007.24 1008.24 1007.41 1007.39 1007.43 1007.08 1006.70 1006.65
1007.56 1008.35 1009.05 1009.55 1009.51 1011.30 1012.89 1014.25 1015.15 1014.60 1014.42 1014.07 1013.66 1013.65 1014.08 1014.65 1015.68 1016.05 1016.50 1016.72 1016.47 1017.12 1016.77 1017.17 1016.93 1016.85 1016.67 1016.91 1017.43 1017.91 1018.40 1018.45 1018.47 1018.18 1016.02 1015.04 1014.52 1008.22 1008.19 1007.92 1007.45 1006.62 1006.14 1006.47 1006.78
1006.38 1007.71 1008.53 1009.11 1009.75 1011.02 1012.02 1013.40 1011.99 1012.37 1012.54 1012.64 1013.04 1013.23 1013.51 1014.19 1015.15 1015.56 1015.98 1015.95 1015.96 1015.94 1015.77 1015.97 1016.26 1016.05 1016.06 1015.89 1016.12 1016.92 1017.58 1017.39 1016.69 1016.34 1015.12 1014.82 1012.02 1008.57 1008.26 1007.67 1006.90 1006.53 1006.59 1006.57 1006.75
1006.26 1007.22 1008.19 1008.76 1009.30 1010.05 1010.97 1010.31 1009.95 1011.29 1011.07 1011.75 1012.81 1012.98 1013.47 1013.93 1014.03 1014.87 1014.83 1014.87 1014.93 1015.25 1014.83 1015.14 1015.03 1014.91 1015.28 1015.91 1015.94 1016.32 1016.50 1017.03 1017.14 1016.97 1015.60 1013.12 1010.53 1008.84 1007.79 1007.11 1006.62 1006.65 1006.83 1006.64 1006.73
1005.54 1006.52 1007.37 1008.24 1008.95 1009.26 1010.00 1009.67 1009.51 1009.94 1010.64 1010.77 1011.20 1011.54 1011.84 1012.28 1012.92 1013.67 1013.94 1013.15 1013.75 1014.04 1014.48 1014.56 1014.68 1014.83 1015.42 1015.82 1015.59 1014.93 1015.77 1016.64 1016.73 1015.58 1014.18 1011.27 1009.69 1007.58 1007.09 1006.18 1005.73 1006.42 1006.73 1006.79 1007.12
1005.50 1006.51 1006.57 1007.48 1008.66 1008.11 1007.96 1009.14 1009.29 1009.37 1009.57 1010.68 1010.67 1010.66 1010.89 1011.21 1011.71 1012.18 1012.06 1012.44 1012.85 1013.27 1014.37 1014.54 1015.04 1015.65 1015.72 1014.86 1014.29 1015.40 1015.49 1015.32 1015.34 1015.23 1013.83 1011.33 1008.45 1006.61 1006.18 1005.88 1006.05 1006.09 1006.77 1006.99 1007.06
1005.21 1006.48 1006.35 1006.61 1007.20 1006.83 1007.51 1008.47 1008.67 1009.06 1009.87 1009.58 1009.96 1009.73 1009.42 1010.45 1011.71 1011.98 1011.06 1011.20 1011.78 1012.67 1013.25 1014.08 1015.44 1015.51 1014.99 1014.55 1014.28 1013.90 1013.83 1014.35 1014.47 1014.64 1013.91 1012.11 1007.86 1006.81 1006.32 1006.16 1006.33 1006.59 1007.00 1006.86 1007.13
1004.96 1005.79 1006.11 1005.74 1005.39 1006.06 1006.79 1007.98 1007.83 1008.58 1008.78 1009.00 1009.65 1009.65 1009.57 1010.30 1011.85 1011.37 1011.47 1011.69 1011.80 1012.13 1012.39 1013.95 1014.91 1015.35 1015.48 1015.52 1014.47 1013.43 1013.04 1013.39 1013.98 1014.38 1013.10 1011.80 1007.21 1006.32 1006.78 1006.47 1006.63 1006.63 1006.58 1006.76 1006.62
1004.95 1005.80 1005.62 1005.59 1005.81 1005.68 1005.91 1007.16 1007.58 1007.77 1008.06 1007.89 1008.39 1008.84 1009.56 1010.48 1010.91 1010.99 1011.26 1011.63 1012.07 1011.99 1012.83 1013.68 1014.30 1014.38 1013.60 1013.56 1013.40 1013.17 1013.02 1013.28 1013.53 1013.31 1011.40 1010.78 1007.33 1006.74 1006.74 1006.78 1006.45 1006.07 1006.12 1006.53 1006.53
1004.21 1004.77 1004.44 1004.25 1005.27 1005.03 1005.46 1006.02 1006.24 1007.12 1007.60 1007.77 1008.44 1008.34 1008.13 1009.85 1010.50 1010.23 1011.07 1011.96 1012.49 1012.45 1013.06 1013.75 1014.30 1014.79 1014.38 1013.91 1013.62 1013.22 1013.11 1012.87 1012.60 1011.69 1011.66 1008.25 1008.26 1006.03 1007.47 1006.91 1006.45 1006.41 1006.34 1006.15 1006.08
1003.38 1004.19 1004.26 1004.00 1004.49 1004.63 1004.92 1005.61 1005.33 1005.88 1006.47 1006.97 1006.83 1007.43 1007.32 1007.84 1008.37 1009.19 1010.27 1011.16 1011.50 1012.73 1013.18 1014.06 1014.26 1014.63 1014.47 1013.92 1013.77 1013.62 1013.19 1012.54 1011.80 1011.40 1011.03 1008.84 1008.39 1007.13 1007.08 1006.87 1006.44 1006.38 1006.38 1005.99 1005.61
1003.72 1004.05 1004.40 1003.94 1003.90 1004.02 1004.07 1005.00 1005.26 1005.38 1006.04 1005.49 1005.83 1006.67 1007.49 1008.04 1009.04 1009.30 1009.66 1010.21 1010.75 1011.30 1012.42 1013.46 1014.23 1014.95 1014.42 1014.23 1014.15 1013.36 1011.40 1011.56 1010.85 1010.27 1009.60 1009.04 1006.08 1007.84 1005.87 1006.72 1006.71 1006.27 1006.54 1006.32 1005.75
Wind_Speed
18 17 16 15 15 16 15 13 11 9 7 5 4 4 4 3 3 5 11 1 3 5 1 2 2 3 2 3 2 1 6 9 10 9 5 6 5 2 1 2 1 3 3 4 8
20 18 17 16 15 16 16 13 11 9 8 7 6 4 2 3 5 10 5 3 4 5 3 3 5 4 4 3 3 6 6 13 5 7 5 9 7 6 4 4 3 3 5 3 9
22 20 19 17 16 14 17 15 13 11 9 7 6 5 3 5 4 7 6 12 7 6 2 3 4 5 5 4 6 5 11 10 8 7 3 5 4 4 6 8 8 6 3 7 11
22 22 20 18 17 15 14 16 14 12 10 8 6 5 5 5 8 1 5 11 10 7 6 7 7 9 6 7 5 7 9 7 3 7 3 6 4 8 11 13 10 11 7 7 12
20 22 21 20 18 16 15 15 15 13 11 9 7 6 6 7 7 1 4 6 13 10 11 10 10 9 9 6 5 8 8 7 8 1 4 4 11 9 16 16 14 10 7 11 13
13 21 23 22 19 18 16 14 14 13 11 10 10 6 4 15 2 0 4 9 9 13 13 10 8 8 4 6 10 1 9 11 3 8 6 7 13 2 17 12 16 14 16 14 13
16 16 21 24 22 20 17 16 14 13 12 11 11 5 8 12 3 4 2 2 10 12 7 7 4 8 6 4 4 1 9 10 7 5 6 4 15 12 22 18 18 15 16 16 16
16 17 19 22 25 23 19 17 16 12 10 10 9 4 6 3 6 3 3 4 4 6 7 4 3 3 2 6 4 2 4 11 4 6 6 7 18 8 14 12 17 20 18 17 17
17 18 17 23 25 25 21 18 14 12 10 9 7 6 6 6 7 7 3 6 9 3 2 3 4 4 3 8 6 6 10 13 11 11 5 13 14 11 14 8 13 16 16 16 17
19 18 19 22 23 24 24 19 13 11 7 5 3 6 7 7 8 6 4 10 5 9 3 6 6 8 8 10 12 10 12 13 17 5 12 18 19 18 18 18 18 19 19 19 18
20 20 20 20 26 30 22 13 10 6 11 8 9 4 3 6 7 9 8 8 6 10 8 13 9 16 13 19 16 15 10 17 14 11 17 20 23 20 21 22 21 20 21 20 22
21 21 21 21 21 28 18 15 23 6 13 15 2 10 4 6 7 10 11 14 9 8 14 7 18 17 14 15 15 16 18 18 13 10 15 20 27 23 23 26 23 24 24 24 23
21 21 21 20 23 20 24 27 13 15 7 14 7 18 5 8 8 16 17 12 12 11 22 17 4 13 12 13 17 18 17 15 19 12 12 15 31 26 24 27 25 25 26 25 25
22 21 22 21 17 16 21 20 8 4 5 10 13 7 13 7 7 13 18 14 6 18 12 14 12 16 15 16 13 18 16 19 19 12 13 6 19 23 20 23 21 17 18 20 22
20 22 22 25 8 20 13 16 7 5 10 15 21 8 13 13 11 10 16 9 17 15 10 9 13 19 15 14 16 15 10 13 17 17 12 19 13 12 9 16 19 18 18 21 21
25 20 22 15 10 10 17 17 9 5 9 11 16 20 20 21 9 13 13 7 6 12 13 15 2 15 22 12 17 4 14 9 3 0 9 15 13 20 14 17 17 21 19 20 18
23 19 18 11 17 15 19 11 12 10 6 10 16 24 26 17 17 13 15 13 11 11 17 14 19 3 5 17 15 14 6 4 7 6 9 2 13 22 11 12 11 17 18 14 16
26 23 16 11 9 21 13 10 9 9 10 11 15 23 23 22 16 16 20 15 17 11 8 15 11 23 14 15 7 20 16 8 8 9 5 3 14 9 5 10 16 16 16 16 17
24 11 12 11 11 15 10 18 11 13 12 15 21 23 14 22 12 17 20 21 16 17 11 11 12 5 12 14 16 9 10 7 4 1 2 7 13 14 15 18 16 13 10 9 11
9 8 14 15 12 11 12 15 12 11 10 20 11 14 19 27 17 22 20 19 23 25 19 6 7 5 14 14 18 19 8 7 5 4 7 13 14 15 8 16 14 8 1 6 6
7 4 6 17 11 9 11 9 6 11 13 8 7 10 17 26 23 24 20 8 27 19 24 10 7 5 11 14 16 9 8 10 6 6 9 11 13 8 16 12 10 4 5 7 6
5 5 7 15 13 4 14 9 7 15 6 7 4 6 13 23 21 23 25 19 15 20 26 22 3 8 16 4 19 22 20 18 9 9 6 5 15 5 8 10 7 8 9 8 8
8 4 5 12 11 5 8 7 10 19 17 14 7 4 6 19 15 17 17 8 9 22 18 13 6 4 5 6 4 16 21 17 14 3 9 7 13 3 3 7 3 9 11 11 11
5 6 4 8 2 11 8 10 11 22 13 7 8 8 15 17 1 19 12 9 12 21 11 16 6 12 11 2 5 5 18 17 16 8 18 14 27 19 14 17 20 21 20 17 15
2 3 3 6 10 7 12 13 20 12 5 8 7 10 13 11 10 8 12 6 6 14 14 12 7 14 12 3 1 3 9 17 18 24 10 25 22 26 17 16 16 19 21 21 17
5 2 4 3 14 18 13 13 28 19 14 16 15 19 15 12 14 18 17 14 10 11 18 7 3 4 5 12 11 9 13 15 20 23 22 29 24 23 26 21 21 19 17 19 19
2 3 3 8 13 14 10 21 24 19 8 10 13 13 11 9 7 10 8 15 8 16 17 12 7 6 6 7 7 11 23 22 20 18 23 22 28 18 22 17 17 19 17 20 21
Wind_Direction
211 211 208 214 218 208 208 209 213 210 208 226 257 312 325 303 158 223 234 349 143 123 91 60 129 92 100 101 113 199 232 235 222 192 188 155 163 156 314 306 300 194 287 44 138
212 211 208 211 213 209 206 207 207 206 203 209 218 257 292 225 210 235 220 212 144 143 187 181 156 145 129 137 166 207 230 246 246 219 201 184 209 184 186 275 275 238 165 125 158
212 209 207 208 209 208 204 202 202 202 200 197 201 214 233 190 246 246 222 230 167 172 186 188 151 167 180 176 176 188 234 238 224 208 236 242 250 223 216 245 236 251 259 179 176
217 208 205 204 205 209 203 203 200 198 194 191 191 195 215 201 223 88 320 225 165 173 183 169 177 164 191 203 174 221 246 230 249 212 208 246 274 261 256 254 220 222 246 225 208
225 210 204 201 200 204 202 201 203 199 189 181 180 175 164 200 236 165 300 222 182 183 201 182 186 188 198 196 166 237 242 231 235 238 254 263 264 291 273 264 267 227 222 223 221
215 220 202 198 196 199 198 193 196 199 188 181 178 159 218 213 119 6 122 131 182 190 211 213 206 197 185 206 212 345 268 267 286 256 243 249 259 242 262 284 266 254 247 236 231
216 210 216 193 190 193 194 186 188 194 185 186 181 175 215 217 138 150 150 157 177 189 190 208 197 201 175 186 173 125 277 260 240 246 246 234 258 233 267 272 267 266 255 256 245
224 214 207 207 188 186 188 184 179 177 184 185 173 172 229 202 181 112 140 101 166 207 228 208 182 156 232 117 108 211 230 255 250 220 224 220 260 236 251 275 264 261 258 253 243
216 219 208 200 196 181 179 176 168 165 184 162 151 201 224 125 193 213 195 159 142 150 66 162 205 193 154 209 208 191 249 235 256 206 266 220 265 263 252 249 262 272 271 263 258
210 214 215 201 198 186 168 159 146 142 147 154 299 178 190 189 169 164 170 156 147 146 88 210 204 199 212 196 212 216 226 243 250 232 231 253 253 270 264 270 269 275 275 271 267
204 208 209 203 193 183 155 129 149 174 190 190 188 234 142 112 121 183 166 155 146 183 181 198 205 211 192 225 239 244 273 253 264 276 269 266 269 261 266 263 263 264 265 266 265
209 203 206 203 192 188 158 178 180 153 171 214 203 197 137 180 154 181 174 183 194 188 188 180 218 215 220 220 226 229 250 249 254 267 277 278 274 271 268 265 260 265 266 262 260
211 202 199 200 186 180 165 192 161 160 150 200 206 203 168 195 189 185 189 187 198 198 193 203 199 186 189 198 223 234 241 255 257 274 274 294 281 266 253 255 256 251 258 264 262
213 206 196 188 195 194 184 170 203 211 129 172 204 219 202 206 216 175 196 182 186 212 195 225 210 188 206 224 208 232 231 246 255 261 263 251 284 282 281 266 259 253 250 257 254
235 208 196 185 176 199 163 170 95 308 185 165 178 173 180 196 134 179 187 196 201 183 185 192 200 208 213 211 219 250 226 248 241 246 266 252 269 268 260 263 264 266 261 262 264
229 207 197 197 205 197 168 152 87 162 204 165 158 178 166 191 183 140 179 205 181 199 226 222 331 217 225 206 214 200 231 228 238 284 244 229 225 281 257 258 264 269 270 267 271
207 209 197 188 202 144 135 139 174 202 163 164 177 174 177 172 168 173 185 183 179 174 207 214 227 222 187 207 213 207 152 206 207 198 248 156 193 249 323 300 255 266 267 294 288
190 197 201 207 182 149 160 162 206 144 176 174 174 163 183 159 187 181 182 195 214 206 164 200 203 211 195 214 188 203 202 219 235 215 227 138 229 262 287 286 261 275 279 292 303
183 181 189 208 188 164 187 192 184 167 158 156 149 156 173 182 169 179 196 203 195 195 189 189 225 198 206 203 192 165 202 237 275 164 256 231 253 267 250 260 265 270 280 295 312
175 166 196 189 194 181 187 209 171 154 137 147 144 180 178 181 177 187 187 205 208 204 226 178 221 193 184 195 225 231 156 194 188 242 245 249 266 256 276 281 260 233 303 320 312
155 139 197 182 183 207 190 212 135 158 152 154 155 161 184 176 192 189 190 164 199 198 202 198 235 140 159 201 187 190 218 224 251 230 238 265 260 264 238 262 279 264 321 310 321
131 182 179 158 202 195 196 159 148 158 216 131 116 83 171 174 184 191 201 200 191 181 197 206 161 226 226 263 234 201 200 191 203 195 231 283 263 159 237 260 277 303 295 330 298
152 141 220 172 204 191 137 130 151 162 180 154 144 190 167 162 181 200 201 188 193 185 188 157 195 210 201 252 238 217 213 205 218 110 214 210 253 187 199 288 309 306 307 292 299
130 168 189 186 239 187 145 150 142 178 176 166 122 129 128 170 169 184 190 178 189 187 178 164 188 218 237 103 141 205 210 195 204 213 235 238 266 255 272 295 293 300 306 304 307
117 182 201 170 192 154 156 159 155 157 200 174 160 181 152 158 180 183 168 147 180 190 182 176 206 212 226 151 184 210 217 216 216 228 231 248 252 270 272 276 282 289 291 296 298
134 163 170 131 174 164 170 174 166 167 157 187 179 178 165 149 185 171 168 176 175 184 186 181 189 159 238 219 212 226 238 236 229 234 242 256 264 269 271 278 276 290 301 299 299
106 135 302 160 162 160 171 161 187 161 210 200 174 153 175 171 149 160 147 158 162 176 181 171 146 158 237 204 215 243 230 226 234 228 234 247 253 267 271 280 295 299 306 300 302